Regional Weather Roundup
Issued by NWS Newport/Morehead, NC

Current Version | Previous Version | Graphics & Text | Print | Product List | Glossary Off
Versions: 1 2 3 4 5 6 7 8 9 10 11 12 13 14 15 16 17 18 19 20 21 22 23 24 25 26 27 28 29 30 31 32 33 34 35 36 37 38 39 40 41 42 43 44 45 46 47 48 49 50

000
ASUS42 KMHX 221913
RWRMHX
WEATHER ROUNDUP FOR EASTERN NORTH CAROLINA
NATIONAL WEATHER SERVICE NEWPORT/MOREHEAD CITY NC
300 PM EDT SUN OCT 22 2017

NOTE: "FAIR" INDICATES FEW OR NO CLOUDS BELOW 12,000 FEET
WITH NO SIGNIFICANT WEATHER AND/OR OBSTRUCTIONS TO VISIBILITY

NCZ015>017-031-032-045>047-102-103-222000-
NORTH COAST

CITY           SKY/WX    TMP DP  RH WIND       PRES   REMARKS
EDENTON        SUNNY     79  63  57 CALM      30.32F
ELIZABETH CITY SUNNY     78  58  49 E8        30.32F
KITTY HAWK     CLEAR     74  64  70 CALM      30.32S
MANTEO         SUNNY    N/A N/A N/A E7        30.33S

$$

NCZ045>047-081-094-103-104-222000-
CENTRAL COAST

CITY           SKY/WX    TMP DP  RH WIND       PRES   REMARKS
FRISCO         MOSUNNY   82  62  50 SE8       30.31F

$$

NCZ095-097-098-100-101-222000-
SOUTHERN COAST

CITY           SKY/WX    TMP DP  RH WIND       PRES   REMARKS
BEAUFORT       PTSUNNY   77  64  64 VRB3      30.29F
CEDAR ISLAND   NOT AVBL
JACKSONVILLE   PTSUNNY   80  66  62 SE13      30.28F
PINEY ISLAND     N/A    N/A N/A N/A NE12      30.30F
WILMINGTON     MOSUNNY   79  64  60 E9        30.28F


$$

NCZ011>013-027>030-043-044-078>080-089-090>093-098-222000-
COASTAL PLAIN

CITY           SKY/WX    TMP DP  RH WIND       PRES   REMARKS
AHOSKIE        SUNNY     77  56  48 E3        30.31F
CLINTON        MOSUNNY   78  63  60 E5        30.28F
ELIZABETHTOWN  NOT AVBL
GOLDSBORO      MOSUNNY   81  58  45 SE6       30.27F HAZE
GREENVILLE     MOSUNNY   79  59  50 CALM      30.30F
HAVELOCK       PTSUNNY   77  65  66 NE8       30.30F
KENANSVILLE    MOSUNNY   79  61  53 E6        30.28F
KINSTON        MOSUNNY   81  59  47 SE6       30.29F
NEW BERN       SUNNY     79  64  60 E7        30.30F
RICHLANDS      PTSUNNY   80  63  55 E6        30.28F
ROCKY MOUNT    SUNNY     78  56  46 SE5       30.30F
WASHINGTON     SUNNY     79  60  50 SE5       30.30F
WHITEVILLE     MOSUNNY   80  62  53 SE8       30.26F

$$

AMZ130-135-150-152-154-156-158-170-250-252-270-ANZ085-086-088-633-658-670-222000-
MARINE OBSERVATIONS

STATION/POSITION TIME  TEMP    WIND        PRES    WAVE   SWELL
                       AIR SEA DIR/SP/G            HT/PER HT/PER
                 (UTC) (F)     (DEG/KT/KT) (MB)    (FT/S) (FT/S)
CHESAPEAKE LIGHT NOT AVBL
64 E VA BEACH    1850   69 70   30/  6/  6 1027.5    3/ 9   2/ 9
DUCK             1848   73 70   80/  7/  8 1026.6
2 E DUCK         1900      70                N/A     2/ 9
OREGON INLET     1842   72 71   40/  6/  9 1026.5
13E OREGON INLT  1848      73                N/A     3/ 8   2/ 8
HATTERAS CG      1848   77 72  120/  5/  8 1026.4
DIAMOND BUOY     1850   76 81   80/  4/  6 1026.2    3/ 9   3/ 9
CAPE LOOKOUT     1900   78      90/  2/  3 1025.2
BEAUFORT LAB     1848   76 72  120/  4/  6 1025.8
30 SE NEW RVR IN 1808   76      90/  4/  6 1025.9
30 SE NEW RVR IN NOT AVBL
27 SE WRIGHTSVLE 1808   77 76  110/  8/ 12 1025.8
5 SE WRIGHTSVLE  1808   74 74   80/ 12/ 16 1025.7
225 S CAPE HAT   1850   77 80   90/ 12/ 16 1024.4    4/ 8   3/ 8
41 SE CHARLESTON 1850   79 79  100/ 17/ 23 1022.4    7/ 7

$$




USA.gov is the U.S. government's official web portal to all federal, state and local government web resources and services.